Time,TemperatureF,DewpointF,PressureIn,WindDirection,WindDirectionDegrees,WindSpeedMPH,WindSpeedGustMPH,Humidity,HourlyPrecipIn,Conditions,Clouds,dailyrainin,SoftwareType,DateUTC
2013-03-23 00:06:00,26.6,22.0,29.71,SSW,210,0.0,2.0,82,0.00,,,0.00,weatherlink.com 1.10,2013-03-23 04:06:00,
2013-03-23 00:21:00,26.5,23.0,29.71,SSW,211,0.0,1.0,85,0.00,,,0.00,weatherlink.com 1.10,2013-03-23 04:21:00,
2013-03-23 00:36:00,26.3,23.0,29.71,SSW,211,0.0,0.0,86,0.00,,,0.00,weatherlink.com 1.10,2013-03-23 04:36:00,
2013-03-23 01:21:00,26.0,23.0,29.71,SSW,210,0.0,0.0,88,0.00,,,0.00,weatherlink.com 1.10,2013-03-23 05:21:00,
2013-03-23 01:51:00,24.8,23.0,29.70,East,82,0.0,2.0,92,0.00,,,0.00,weatherlink.com 1.10,2013-03-23 05:51:00,
2013-03-23 02:06:00,24.7,23.0,29.70,East,80,0.0,1.0,92,0.00,,,0.00,weatherlink.com 1.10,2013-03-23 06:06:00,
2013-03-23 02:21:00,24.8,23.0,29.70,East,80,0.0,0.0,92,0.00,,,0.00,weatherlink.com 1.10,2013-03-23 06:21:00,
2013-03-23 02:36:00,24.9,23.0,29.69,East,80,0.0,0.0,93,0.00,,,0.00,weatherlink.com 1.10,2013-03-23 06:36:00,
2013-03-23 02:51:00,25.1,23.0,29.69,East,80,0.0,0.0,93,0.00,,,0.00,weatherlink.com 1.10,2013-03-23 06:51:00,
2013-03-23 03:06:00,24.9,23.0,29.68,East,80,0.0,0.0,92,0.00,,,0.00,weatherlink.com 1.10,2013-03-23 07:06:00,
2013-03-23 03:21:00,24.9,23.0,29.68,SE,134,0.0,1.0,93,0.00,,,0.00,weatherlink.com 1.10,2013-03-23 07:21:00,
2013-03-23 03:36:00,24.8,23.0,29.67,ENE,65,2.0,2.0,93,0.00,,,0.00,weatherlink.com 1.10,2013-03-23 07:36:00,
2013-03-23 03:51:00,24.9,23.0,29.67,ENE,77,0.0,1.0,93,0.00,,,0.00,weatherlink.com 1.10,2013-03-23 07:51:00,
2013-03-23 04:06:00,25.7,23.0,29.66,South,178,1.0,4.0,90,0.00,,,0.00,weatherlink.com 1.10,2013-03-23 08:06:00,
2013-03-23 04:21:00,26.1,23.0,29.66,WSW,242,0.0,4.0,89,0.00,,,0.00,weatherlink.com 1.10,2013-03-23 08:21:00,
2013-03-23 04:36:00,26.7,24.0,29.66,SE,142,0.0,2.0,88,0.00,,,0.00,weatherlink.com 1.10,2013-03-23 08:36:00,
2013-03-23 05:06:00,27.2,24.0,29.66,South,177,0.0,4.0,87,0.00,,,0.00,weatherlink.com 1.10,2013-03-23 09:06:00,
2013-03-23 05:21:00,27.4,24.0,29.65,SSE,158,0.0,5.0,86,0.00,,,0.00,weatherlink.com 1.10,2013-03-23 09:21:00,
2013-03-23 05:36:00,27.5,24.0,29.66,SSE,147,0.0,5.0,86,0.00,,,0.00,weatherlink.com 1.10,2013-03-23 09:36:00,
2013-03-23 05:51:00,27.7,24.0,29.67,SW,224,3.0,6.0,85,0.00,,,0.00,weatherlink.com 1.10,2013-03-23 09:51:00,
2013-03-23 06:06:00,27.7,24.0,29.67,SW,225,1.0,5.0,85,0.00,,,0.00,weatherlink.com 1.10,2013-03-23 10:06:00,
2013-03-23 06:21:00,27.6,23.0,29.67,SSW,197,1.0,6.0,83,0.00,,,0.00,weatherlink.com 1.10,2013-03-23 10:21:00,
2013-03-23 06:36:00,27.7,23.0,29.68,SE,139,2.0,5.0,82,0.00,,,0.00,weatherlink.com 1.10,2013-03-23 10:36:00,
2013-03-23 06:51:00,27.6,23.0,29.68,SE,143,1.0,7.0,82,0.00,,,0.00,weatherlink.com 1.10,2013-03-23 10:51:00,
2013-03-23 07:06:00,27.4,23.0,29.68,SW,233,0.0,8.0,82,0.00,,,0.00,weatherlink.com 1.10,2013-03-23 11:06:00,
2013-03-23 07:21:00,27.5,22.0,29.68,West,265,1.0,6.0,81,0.00,,,0.00,weatherlink.com 1.10,2013-03-23 11:21:00,
2013-03-23 07:36:00,27.4,22.0,29.68,NNW,335,0.0,4.0,81,0.00,,,0.00,weatherlink.com 1.10,2013-03-23 11:36:00,
2013-03-23 07:51:00,27.6,22.0,29.68,East,101,0.0,5.0,80,0.00,,,0.00,weatherlink.com 1.10,2013-03-23 11:51:00,
2013-03-23 08:06:00,27.8,22.0,29.68,ENE,77,0.0,6.0,80,0.00,,,0.00,weatherlink.com 1.10,2013-03-23 12:06:00,
2013-03-23 08:22:00,28.1,23.0,29.67,SSW,213,1.0,4.0,80,0.00,,,0.00,weatherlink.com 1.10,2013-03-23 12:22:00,
2013-03-23 08:37:00,28.7,23.0,29.67,North,355,0.0,5.0,78,0.00,,,0.00,weatherlink.com 1.10,2013-03-23 12:37:00,
2013-03-23 08:51:00,28.9,23.0,29.67,SW,217,1.0,3.0,79,0.00,,,0.00,weatherlink.com 1.10,2013-03-23 12:51:00,
2013-03-23 09:06:00,29.4,23.0,29.67,SSE,148,0.0,6.0,77,0.00,,,0.00,weatherlink.com 1.10,2013-03-23 13:06:00,
2013-03-23 09:37:00,31.1,23.0,29.67,South,184,2.0,7.0,73,0.00,,,0.00,weatherlink.com 1.10,2013-03-23 13:37:00,
2013-03-23 09:52:00,31.5,23.0,29.67,SSE,155,5.0,9.0,72,0.00,,,0.00,weatherlink.com 1.10,2013-03-23 13:52:00,
2013-03-23 10:07:00,32.0,24.0,29.67,SW,236,0.0,15.0,72,0.00,,,0.00,weatherlink.com 1.10,2013-03-23 14:07:00,
2013-03-23 10:22:00,32.4,24.0,29.67,WSW,245,3.0,13.0,70,0.00,,,0.00,weatherlink.com 1.10,2013-03-23 14:22:00,
2013-03-23 10:37:00,33.3,24.0,29.66,East,80,5.0,13.0,68,0.01,,,0.01,weatherlink.com 1.10,2013-03-23 14:37:00,
2013-03-23 10:52:00,33.7,22.0,29.66,NNE,33,6.0,11.0,63,0.02,,,0.02,weatherlink.com 1.10,2013-03-23 14:52:00,
2013-03-23 11:07:00,34.2,23.0,29.66,SW,214,5.0,10.0,63,0.03,,,0.03,weatherlink.com 1.10,2013-03-23 15:07:00,
2013-03-23 11:22:00,34.5,23.0,29.66,SW,231,0.0,11.0,62,0.03,,,0.03,weatherlink.com 1.10,2013-03-23 15:22:00,
2013-03-23 11:37:00,35.1,23.0,29.66,SW,229,0.0,9.0,62,0.03,,,0.04,weatherlink.com 1.10,2013-03-23 15:37:00,
2013-03-23 12:07:00,38.6,23.0,29.65,South,172,3.0,11.0,54,0.02,,,0.05,weatherlink.com 1.10,2013-03-23 16:07:00,
2013-03-23 12:22:00,37.9,23.0,29.65,SSE,161,5.0,17.0,56,0.03,,,0.06,weatherlink.com 1.10,2013-03-23 16:22:00,
2013-03-23 12:37:00,35.5,20.0,29.65,SSE,164,1.0,14.0,53,0.03,,,0.07,weatherlink.com 1.10,2013-03-23 16:37:00,
2013-03-23 12:52:00,35.5,20.0,29.65,East,97,2.0,16.0,54,0.02,,,0.07,weatherlink.com 1.10,2013-03-23 16:52:00,
2013-03-23 13:07:00,35.7,21.0,29.65,South,179,0.0,9.0,56,0.01,,,0.07,weatherlink.com 1.10,2013-03-23 17:07:00,
2013-03-23 13:22:00,34.7,23.0,29.66,South,180,0.0,10.0,62,0.01,,,0.07,weatherlink.com 1.10,2013-03-23 17:22:00,
2013-03-23 13:37:00,34.6,24.0,29.66,WSW,255,1.0,15.0,66,0.01,,,0.08,weatherlink.com 1.10,2013-03-23 17:37:00,
2013-03-23 13:52:00,34.1,23.0,29.66,West,274,3.0,10.0,64,0.01,,,0.08,weatherlink.com 1.10,2013-03-23 17:52:00,
2013-03-23 14:07:00,34.5,24.0,29.66,WSW,244,0.0,9.0,65,0.01,,,0.08,weatherlink.com 1.10,2013-03-23 18:07:00,
2013-03-23 14:22:00,35.5,23.0,29.67,WSW,240,2.0,9.0,61,0.01,,,0.08,weatherlink.com 1.10,2013-03-23 18:22:00,
2013-03-23 14:37:00,34.6,23.0,29.67,SW,214,1.0,8.0,64,0.00,,,0.08,weatherlink.com 1.10,2013-03-23 18:37:00,
2013-03-23 14:52:00,35.2,21.0,29.67,South,187,1.0,8.0,57,0.00,,,0.08,weatherlink.com 1.10,2013-03-23 18:52:00,
2013-03-23 15:07:00,36.3,23.0,29.67,WSW,244,4.0,9.0,58,0.00,,,0.08,weatherlink.com 1.10,2013-03-23 19:07:00,
2013-03-23 15:22:00,36.1,22.0,29.68,SSE,164,2.0,11.0,58,0.00,,,0.08,weatherlink.com 1.10,2013-03-23 19:22:00,
2013-03-23 15:37:00,35.8,21.0,29.68,WSW,254,0.0,9.0,56,0.00,,,0.08,weatherlink.com 1.10,2013-03-23 19:37:00,
2013-03-23 15:52:00,35.3,22.0,29.69,SSW,212,1.0,9.0,58,0.00,,,0.08,weatherlink.com 1.10,2013-03-23 19:52:00,
2013-03-23 16:07:00,35.2,21.0,29.69,ENE,74,1.0,9.0,57,0.00,,,0.08,weatherlink.com 1.10,2013-03-23 20:07:00,
2013-03-23 16:22:00,35.4,22.0,29.69,WSW,256,4.0,11.0,58,0.00,,,0.08,weatherlink.com 1.10,2013-03-23 20:22:00,
2013-03-23 16:37:00,35.2,22.0,29.70,South,175,1.0,7.0,58,0.00,,,0.08,weatherlink.com 1.10,2013-03-23 20:37:00,
2013-03-23 16:52:00,35.1,22.0,29.70,SSW,208,2.0,8.0,60,0.00,,,0.08,weatherlink.com 1.10,2013-03-23 20:52:00,
2013-03-23 17:07:00,34.8,22.0,29.70,North,11,2.0,18.0,61,0.00,,,0.08,weatherlink.com 1.10,2013-03-23 21:07:00,
2013-03-23 17:22:00,34.9,22.0,29.71,SSE,161,0.0,7.0,60,0.00,,,0.08,weatherlink.com 1.10,2013-03-23 21:22:00,
2013-03-23 17:37:00,34.7,22.0,29.71,SW,221,2.0,6.0,61,0.00,,,0.08,weatherlink.com 1.10,2013-03-23 21:37:00,
2013-03-23 17:52:00,34.5,22.0,29.72,SSW,192,6.0,14.0,60,0.00,,,0.08,weatherlink.com 1.10,2013-03-23 21:52:00,
2013-03-23 18:07:00,34.3,22.0,29.73,East,97,1.0,7.0,62,0.00,,,0.08,weatherlink.com 1.10,2013-03-23 22:07:00,
2013-03-23 18:22:00,34.0,22.0,29.73,SSW,199,0.0,10.0,63,0.00,,,0.08,weatherlink.com 1.10,2013-03-23 22:22:00,
2013-03-23 18:37:00,33.7,23.0,29.74,SSW,200,4.0,10.0,65,0.00,,,0.08,weatherlink.com 1.10,2013-03-23 22:37:00,
2013-03-23 18:52:00,33.4,23.0,29.75,South,188,4.0,16.0,66,0.00,,,0.08,weatherlink.com 1.10,2013-03-23 22:52:00,
2013-03-23 19:07:00,33.2,23.0,29.75,SSW,195,0.0,9.0,67,0.00,,,0.08,weatherlink.com 1.10,2013-03-23 23:07:00,
2013-03-23 19:22:00,33.0,23.0,29.75,NW,316,1.0,13.0,68,0.00,,,0.08,weatherlink.com 1.10,2013-03-23 23:22:00,
2013-03-23 19:37:00,32.8,24.0,29.76,NNW,327,0.0,7.0,70,0.00,,,0.08,weatherlink.com 1.10,2013-03-23 23:37:00,
2013-03-23 19:52:00,32.7,24.0,29.77,South,186,3.0,8.0,70,0.00,,,0.08,weatherlink.com 1.10,2013-03-23 23:52:00,
2013-03-23 20:07:00,32.6,24.0,29.77,WSW,238,0.0,4.0,70,0.00,,,0.08,weatherlink.com 1.10,2013-03-24 00:07:00,
2013-03-23 20:22:00,32.5,24.0,29.78,SSW,209,3.0,8.0,71,0.00,,,0.08,weatherlink.com 1.10,2013-03-24 00:22:00,
2013-03-23 20:37:00,32.4,24.0,29.79,SSW,201,3.0,7.0,71,0.00,,,0.08,weatherlink.com 1.10,2013-03-24 00:37:00,
2013-03-23 20:52:00,32.4,24.0,29.79,WSW,243,2.0,7.0,71,0.00,,,0.08,weatherlink.com 1.10,2013-03-24 00:52:00,
2013-03-23 21:07:00,32.3,24.0,29.79,WSW,258,0.0,6.0,71,0.00,,,0.08,weatherlink.com 1.10,2013-03-24 01:07:00,
2013-03-23 21:22:00,32.4,24.0,29.79,SSW,202,1.0,6.0,71,0.00,,,0.08,weatherlink.com 1.10,2013-03-24 01:22:00,
2013-03-23 21:37:00,32.5,24.0,29.79,SW,215,3.0,8.0,70,0.00,,,0.08,weatherlink.com 1.10,2013-03-24 01:37:00,
2013-03-23 21:53:00,32.5,24.0,29.78,SSW,195,5.0,7.0,70,0.00,,,0.08,weatherlink.com 1.10,2013-03-24 01:53:00,
2013-03-23 22:08:00,32.5,24.0,29.78,SE,140,2.0,10.0,70,0.00,,,0.08,weatherlink.com 1.10,2013-03-24 02:08:00,
2013-03-23 22:23:00,32.5,24.0,29.77,West,270,3.0,6.0,70,0.00,,,0.08,weatherlink.com 1.10,2013-03-24 02:23:00,
2013-03-23 22:38:00,32.5,24.0,29.77,SSE,163,0.0,11.0,70,0.00,,,0.08,weatherlink.com 1.10,2013-03-24 02:38:00,
2013-03-23 22:53:00,32.5,24.0,29.77,WSW,252,4.0,6.0,70,0.00,,,0.08,weatherlink.com 1.10,2013-03-24 02:53:00,
2013-03-23 23:08:00,32.5,24.0,29.77,WSW,251,1.0,7.0,71,0.00,,,0.08,weatherlink.com 1.10,2013-03-24 03:08:00,
2013-03-23 23:23:00,32.4,24.0,29.77,West,261,7.0,9.0,71,0.00,,,0.08,weatherlink.com 1.10,2013-03-24 03:23:00,
2013-03-23 23:40:00,32.4,24.0,29.77,South,184,0.0,7.0,71,0.00,,,0.08,weatherlink.com 1.10,2013-03-24 03:40:00,
2013-03-23 23:53:00,32.3,24.0,29.77,SSE,159,0.0,7.0,71,0.00,,,0.08,weatherlink.com 1.10,2013-03-24 03:53:00,